Weather History for KSLH - December, 2012

Change the Weather History Date:

Wednesday, December 5, 2012

  Actual Average (KPLN) Record (KPLN)
Temperature  
Mean Temperature 25 °F -  
Max Temperature 31 °F 35 °F 63 °F (2001)
Min Temperature 19 °F 21 °F -17 °F (1964)
Degree Days  
Heating Degree Days 40    
Moisture  
Dew Point 19 °F    
Average Humidity 71    
Maximum Humidity 89    
Minimum Humidity 58    
Precipitation  
Precipitation 0.00 in - - ()
Sea Level Pressure  
Sea Level Pressure 30.31 in    
Wind  
Wind Speed 10 mph (NW)    
Max Wind Speed 18 mph    
Max Gust Speed 24 mph    
Visibility 10 miles    
Events Snow    
Averages and records for this station are not official NWS values.
T = Trace of Precipitation, MM = Missing Value Source: NWS Daily Summary

Daily Weather History Graph

Daily Weather History Graph

Search for Another Location

Airport or City:

Trip Planner

Search our weather history database for the weather conditions in past years. The results will help you decide how hot, cold, wet, or windy it might be!

Date:

Astronomy

Dec. 05, 2012 Rise Set
Actual Time 8:03 AM EST 4:54 PM EST
Civil Twilight 7:29 AM EST 5:28 PM EST
Nautical Twilight 6:52 AM EST 6:05 PM EST
Astronomical Twilight 6:16 AM EST 6:41 PM EST
Moon 11:58 PM EST (12/5) 12:12 PM EST (12/5)
Length of Visible Light 9h 58m
Length of Day
8h 51m
Waning Gibbous, 60% of the Moon is Illuminated
Dec 5
Waning Gibbous
Dec 6
Last Quarter
Dec 13
New
Dec 20
First Quarter
Dec 28
Full

Hourly Weather History & Observations

Time (EST) Temp. Windchill Dew Point Humidity Pressure Visibility Wind Dir Wind Speed Gust Speed Precip Events Conditions
12:15 AM 30.0 °F 19.1 °F 20.1 °F 67% 30.12 in 10.0 mi WNW 15.0 mph 21.9 mph N/A   Overcast
12:35 AM 30.0 °F 19.1 °F 20.7 °F 68% 30.13 in 10.0 mi WNW 15.0 mph 19.6 mph N/A   Overcast
12:55 AM 30.4 °F 21.5 °F 21.2 °F 69% 30.14 in 10.0 mi West 10.4 mph 17.3 mph N/A   Overcast
1:15 AM 30.7 °F 20.9 °F 21.9 °F 70% 30.14 in 10.0 mi West 12.7 mph 16.1 mph N/A   Overcast
1:35 AM 30.2 °F 19.3 °F 21.9 °F 71% 30.14 in 10.0 mi West 15.0 mph 20.7 mph N/A   Mostly Cloudy
1:55 AM 30.9 °F 20.7 °F 23.0 °F 72% 30.15 in 10.0 mi WNW 13.8 mph 18.4 mph N/A Snow Light Snow
2:15 AM 30.9 °F 21.2 °F 23.9 °F 75% 30.16 in 5.0 mi WNW 12.7 mph - N/A Snow Light Snow
2:55 AM 30.4 °F 20.0 °F 23.9 °F 77% 30.18 in 10.0 mi WNW 13.8 mph - N/A   Mostly Cloudy
3:15 AM 30.2 °F 18.9 °F 23.0 °F 75% 30.19 in 10.0 mi NW 16.1 mph 20.7 mph N/A   Mostly Cloudy
3:36 AM 30.2 °F 19.3 °F 22.8 °F 74% 30.20 in 10.0 mi NW 15.0 mph 24.2 mph N/A   Overcast
3:55 AM 30.0 °F 20.5 °F 22.5 °F 73% 30.20 in 10.0 mi WNW 11.5 mph 21.9 mph N/A   Overcast
4:15 AM 29.3 °F 18.2 °F 21.7 °F 73% 30.21 in 10.0 mi WNW 15.0 mph 20.7 mph N/A   Mostly Cloudy
4:36 AM 29.3 °F 19.1 °F 21.2 °F 72% 30.22 in 10.0 mi NW 12.7 mph 21.9 mph N/A   Mostly Cloudy
4:55 AM 29.3 °F 19.6 °F 21.6 °F 73% 30.23 in 10.0 mi NW 11.5 mph 19.6 mph N/A   Mostly Cloudy
5:15 AM 29.3 °F 18.2 °F 21.2 °F 72% 30.24 in 10.0 mi WNW 15.0 mph 24.2 mph N/A   Overcast
5:35 AM 28.8 °F 17.5 °F 20.7 °F 72% 30.25 in 10.0 mi NW 15.0 mph 20.7 mph N/A   Overcast
5:55 AM 28.4 °F 18.0 °F 20.5 °F 72% 30.27 in 10.0 mi NW 12.7 mph 20.7 mph N/A   Mostly Cloudy
6:16 AM 28.2 °F 15.5 °F 19.9 °F 71% 30.28 in 10.0 mi WNW 18.4 mph 23.0 mph N/A   Mostly Cloudy
6:35 AM 27.5 °F 16.3 °F 17.8 °F 67% 30.30 in 10.0 mi NW 13.8 mph 19.6 mph N/A   Scattered Clouds
6:55 AM 28.2 °F 15.9 °F 16.9 °F 63% 30.30 in 10.0 mi NNW 17.3 mph 23.0 mph N/A   Mostly Cloudy
7:15 AM 27.9 °F 16.8 °F 16.5 °F 62% 30.32 in 10.0 mi NW 13.8 mph 17.3 mph N/A   Overcast
7:35 AM 28.4 °F 17.5 °F 16.9 °F 62% 30.33 in 10.0 mi NW 13.8 mph 23.0 mph N/A   Overcast
7:55 AM 28.4 °F 18.5 °F 16.9 °F 62% 30.35 in 10.0 mi NW 11.5 mph 19.6 mph N/A   Overcast
9:35 AM 28.8 °F 19.5 °F 17.6 °F 63% 30.38 in 10.0 mi NW 10.4 mph 16.1 mph N/A   Overcast
9:55 AM 28.9 °F 18.6 °F 17.2 °F 62% 30.39 in 10.0 mi WNW 12.7 mph 16.1 mph N/A   Overcast
10:15 AM 29.1 °F 20.0 °F 17.6 °F 62% 30.39 in 10.0 mi NW 10.4 mph - N/A   Overcast
10:35 AM 29.1 °F 20.0 °F 18.0 °F 63% 30.40 in 10.0 mi NNW 10.4 mph 17.3 mph N/A   Overcast
10:55 AM 29.3 °F 20.2 °F 17.8 °F 62% 30.41 in 10.0 mi NW 10.4 mph 16.1 mph N/A   Overcast
11:16 AM 29.7 °F 20.7 °F 18.5 °F 63% 30.40 in 10.0 mi NW 10.4 mph - N/A   Overcast
11:35 AM 29.7 °F 20.7 °F 18.5 °F 63% 30.39 in 10.0 mi NW 10.4 mph - N/A   Overcast
11:55 AM 29.8 °F 22.2 °F 19.0 °F 64% 30.39 in 10.0 mi NNW 8.1 mph - N/A   Overcast
12:16 PM 29.8 °F 22.2 °F 18.7 °F 63% 30.40 in 10.0 mi NW 8.1 mph - N/A   Overcast
12:35 PM 30.0 °F 23.2 °F 18.3 °F 62% 30.39 in 10.0 mi NNW 6.9 mph 16.1 mph N/A   Overcast
12:55 PM 30.2 °F 24.3 °F 19.2 °F 64% 30.39 in 10.0 mi NW 5.8 mph - N/A   Overcast
1:16 PM 30.2 °F 21.3 °F 19.4 °F 64% 30.38 in 10.0 mi North 10.4 mph - N/A   Overcast
1:35 PM 30.6 °F 23.1 °F 19.2 °F 63% 30.39 in 10.0 mi North 8.1 mph - N/A   Overcast
1:55 PM 29.3 °F 23.2 °F 18.9 °F 65% 30.38 in 10.0 mi North 5.8 mph - N/A   Scattered Clouds
2:15 PM 30.9 °F 25.2 °F 19.2 °F 62% 30.38 in 10.0 mi NW 5.8 mph - N/A   Scattered Clouds
2:36 PM 30.7 °F 27.3 °F 18.5 °F 60% 30.38 in 10.0 mi NNW 3.5 mph - N/A   Clear
2:55 PM 31.5 °F - 18.1 °F 58% 30.38 in 10.0 mi Calm Calm - N/A   Clear
3:15 PM 31.5 °F 25.8 °F 19.0 °F 60% 30.38 in 10.0 mi WNW 5.8 mph - N/A   Clear
3:35 PM 30.9 °F 27.5 °F 18.5 °F 60% 30.38 in 10.0 mi NNW 3.5 mph - N/A   Clear
3:55 PM 30.9 °F - 18.5 °F 60% 30.37 in 10.0 mi Calm Calm - N/A   Clear
4:15 PM 30.0 °F 26.5 °F 18.9 °F 63% 30.36 in 10.0 mi North 3.5 mph - N/A   Clear
4:36 PM 28.9 °F - 19.4 °F 68% 30.36 in 10.0 mi Calm Calm - N/A   Clear
4:55 PM 28.0 °F - 19.4 °F 70% 30.36 in 10.0 mi Calm Calm - N/A   Clear
5:15 PM 27.7 °F - 19.2 °F 71% 30.37 in 10.0 mi Calm Calm - N/A   Clear
5:35 PM 26.2 °F - 19.6 °F 76% 30.37 in 7.0 mi Calm Calm - N/A   Clear
5:55 PM 24.8 °F - 19.8 °F 81% 30.36 in 10.0 mi Calm Calm - N/A   Clear
6:15 PM 24.3 °F - 19.8 °F 83% 30.35 in 10.0 mi Calm Calm - N/A   Clear
6:35 PM 22.8 °F 18.2 °F 19.0 °F 85% 30.35 in 10.0 mi SE 3.5 mph - N/A   Clear
6:56 PM 25.7 °F - 19.4 °F 77% 30.35 in 10.0 mi Calm Calm - N/A   Clear
7:15 PM 22.6 °F - 18.1 °F 83% 30.35 in 10.0 mi Calm Calm - N/A   Clear
7:35 PM 21.9 °F - 18.7 °F 87% 30.35 in 10.0 mi Calm Calm - N/A   Clear
7:56 PM 22.3 °F - 18.7 °F 86% 30.35 in 10.0 mi Calm Calm - N/A   Clear
8:15 PM 22.6 °F - 18.5 °F 84% 30.35 in 10.0 mi Calm Calm - N/A   Clear
8:35 PM 19.9 °F - 16.7 °F 87% 30.35 in 10.0 mi Calm Calm - N/A   Clear
8:55 PM 19.6 °F 14.5 °F 16.7 °F 89% 30.35 in 10.0 mi South 3.5 mph - N/A   Clear
9:15 PM 23.2 °F 17.2 °F 18.5 °F 82% 30.34 in 10.0 mi SE 4.6 mph - N/A   Clear
9:35 PM 23.0 °F 17.0 °F 19.0 °F 85% 30.33 in 10.0 mi SSE 4.6 mph - N/A   Clear
9:55 PM 22.5 °F 16.3 °F 18.1 °F 83% 30.33 in 10.0 mi SSE 4.6 mph - N/A   Clear
10:16 PM 22.5 °F 15.1 °F 18.3 °F 84% 30.31 in 10.0 mi SE 5.8 mph - N/A   Clear
10:35 PM 22.6 °F 16.5 °F 18.5 °F 84% 30.30 in 10.0 mi SE 4.6 mph - N/A   Clear
10:55 PM 22.8 °F 16.7 °F 18.3 °F 83% 30.30 in 10.0 mi SE 4.6 mph - N/A   Clear
11:16 PM 23.0 °F 17.0 °F 18.3 °F 82% 30.29 in 10.0 mi SE 4.6 mph - N/A   Clear
11:35 PM 23.4 °F 16.2 °F 18.3 °F 81% 30.28 in 10.0 mi SE 5.8 mph - N/A   Clear
11:56 PM 25.2 °F 18.3 °F 19.2 °F 78% 30.28 in 10.0 mi SSE 5.8 mph - N/A   Clear